Regional Weather Roundup
Issued by NWS

Home | Current Version | Previous Version | Text Only | Print | Product List | Glossary On
Versions: 1 2 3 4 5 6 7 8 9 10 11 12 13 14 15 16 17 18 19 20 21 22 23 24 25 26 27 28 29 30 31 32 33 34 35 36 37 38 39 40 41 42 43 44 45 46 47 48 49 50
000
ASUS43 KDMX 261007
RWRIA

WEATHER ROUNDUP FOR IOWA
NATIONAL WEATHER SERVICE DES MOINES IA
500 AM CDT TUE MAY 26 2015

NOTE: "FAIR" INDICATES FEW OR NO CLOUDS BELOW 12,000 FEET WITH NO
SIGNIFICANT WEATHER AND/OR OBSTRUCTIONS TO VISIBILITY.

* - THESE STATIONS ARE NOT NWS STATIONS...THUS NOT UNDER NWS
QUALITY CONTROL.  THEY ALSO DO NOT REPORT WEATHER SUCH
AS PRECIPITATION OR FOG.

IAZ001>003-012>014-020>022-031>034-043>046-261100-
   NORTHWEST IOWA

CITY           SKY/WX    TMP DP  RH WIND       PRES   REMARKS
CARROLL *      LGT RAIN  61  59  94 S8        29.82F
CHEROKEE *     CLOUDY    61  59  94 CALM      29.77S
DENISON *      CLOUDY    61  61 100 SE6       29.78F
LE MARS *      CLOUDY    61  61 100 NE6       29.77S
ORANGE CITY *  CLOUDY    57  55  94 CALM      29.77F
SHELDON *      RAIN      57  57 100 NE9G17    29.76F
SIOUX CITY     CLOUDY    62  59  90 W3        29.76R FOG
SPENCER        CLOUDY    60  58  92 NE8       29.78S
STORM LAKE *   MOCLDY    61  57  88 W6        29.79S
$$

IAZ055>058-069>071-079>083-090>094-261100-
   SOUTHWEST IOWA

CITY           SKY/WX    TMP DP  RH WIND       PRES   REMARKS
ATLANTIC *     DRIZZLE   61  61 100 CALM      29.79F
AUDUBON *      RAIN      61  57  88 S7        29.82S
COUNCIL BLFS * CLOUDY    61  61 100 S8        29.77F
CRESTON *      LGT RAIN  59  59 100 W5        29.78F
HARLAN  *      CLOUDY    61  61 100 S9G15     29.82F
LAMONI         LGT RAIN  62  59  90 SE3       29.79S FOG
RED OAK *      CLOUDY    61  61 100 S3        29.76F
SHENANDOAH *   CLOUDY    61  61 100 CALM      29.75F
$$

IAZ047>049-059>061-072>074-084-261100-
   CENTRAL IOWA

CITY           SKY/WX    TMP DP  RH WIND       PRES   REMARKS
AMES           RAIN      61  59  93 W7        29.83R FOG
ANKENY *       LGT RAIN  61  61 100 N8        29.78F
CHARITON *     RAIN      61  61 100 NW3       29.79R
DES MOINES     LGT RAIN  62  59  90 NW10      29.77F
GRINNELL*      CLOUDY    63  57  82 N6        29.79S
KNOXVILLE *    DRIZZLE   61  59  94 NW13      29.77F
MARSHALLTOWN   CLOUDY    62  58  86 SW15      29.81R
PELLA *        CLOUDY    63  61  94 NW12      29.78F
PERRY *        RAIN      61  59  94 CALM      29.83F
$$

IAZ004>006-015-016-023>025-035-036-261100-
   NORTH CENTRAL IOWA

CITY           SKY/WX    TMP DP  RH WIND       PRES   REMARKS
ALGONA *       CLEAR     59  59 100 SE7       29.81R
CLARION *      LGT RAIN  61  61 100 SW10      29.84R
ESTHERVILLE    CLOUDY    57  56  96 N6        29.79S
FORT DODGE *   CLOUDY    61  55  82 S12       29.85R
MASON CITY     CLOUDY    58  56  93 S5        29.82S
FOREST CITY *  CLEAR     55  55 100 SE5       29.82R
IOWA FALLS *   RAIN      61  57  88 SW10      29.85R
$$

IAZ007>011-017>019-026>030-037>042-050>054-066-261100-
   NORTHEAST IOWA

CITY           SKY/WX    TMP DP  RH WIND       PRES   REMARKS
CEDAR RAPIDS   CLOUDY    66  65  96 SE5       29.79F
CHARLES CITY * PTCLDY    59  59 100 S7        29.81R
CLINTON *      CLOUDY    66  64  94 SE9       29.86F
DECORAH *      CLEAR     59  57  94 S6G13     29.81R
DUBUQUE        CLOUDY    66  63  90 SE5       29.85F
MONTICELLO *   CLOUDY    68  68 100 SE6       29.82F
OELWEIN *      LGT RAIN  63  61  94 S7G15     29.81F
WATERLOO       CLOUDY    63  60  90 SE7       29.78F
$$

IAZ064-065-067-068-078-261100-
   EAST CENTRAL IOWA

CITY           SKY/WX    TMP DP  RH WIND       PRES   REMARKS
DAVENPORT      CLOUDY    68  65  90 S14       29.83F
IOWA CITY      CLOUDY    66  64  93 SE6       29.81F
MT. PLEASANT * RAIN      68  66  94 SE13      29.80S
MUSCATINE *    CLEAR     70  66  88 SE6       29.80F
QUAD CITIES    CLOUDY    68  65  90 SE7       29.82F
$$

IAZ062-063-075>077-085>089-095>099-261100-
   SOUTHEAST IOWA

CITY           SKY/WX    TMP DP  RH WIND       PRES   REMARKS
BURLINGTON     CLOUDY    70  67  90 SE14      29.80F
FAIRFIELD *    CLOUDY    66  64  94 SE9       29.78F
FORT MADISON * MOCLDY    68  66  94 SE8       29.80F
KEOKUK *       CLOUDY    68  68 100 SE9       29.79F
OSKALOOSA *      N/A     66  63  88 SE7       29.77F
CENTERVILLE *  LGT RAIN  64  64 100 CALM      29.77F
OTTUMWA        LGT RAIN  65  63  93 E7        29.75F
WASHINGTON *   PTCLDY    66  64  94 E7        29.80F
$$

ABBREVIATIONS USED IN REMARKS
   TC - TEMPERATURES IN CELSIUS
  WCI - WIND CHILL INDEX
   HX - HEAT INDEX
  VSB - VISIBILITY
$$



USA.gov is the U.S. government's official web portal to all federal, state and local government web resources and services.